User: anonymous   Login
Location: Plymouth
(43.7570°N, 71.6890°W)
Time: 12:07:41
(UTC-04:00)
Language:

COSMOS 2406 - Orbit

View from above orbital plane
View from above orbital plane
View from above satellite
View from above satellite

Ground track
Ground track

The orbit data is extracted from the following two-line orbital elements,

1 28352U 04021A   15147.79262807  .00000319  00000-0  20178-3 0  9990
2 28352 071.0041 253.2951 0013181 165.4905 356.0818 14.11411743564829
Epoch (UTC): 27 May 2015 19:01:23
Eccentricity: 0.0013181
inclination: 71.0041°
perigee height: 845 km
apogee height: 864 km
right ascension of ascending node: 253.2951°
argument of perigee: 165.4905°
revolutions per day: 14.11411743
mean anomaly at epoch: 356.0818°
orbit number at epoch: 56482

The dashed part of the orbit path shows where the satellite is in the earth's shadow,  

DLR